• In Belarus
  • List of Countries
  • For 7 days
  • Water Temperature
  • Satellite Maps
  • Weather Map
  • Weather Widgets
  • user-avatar
    Login

    Hourly Weather Escaldes-Engordany

    Today, 20 November, Monday

    Time Temperature Precipitation Wind Pressure Humidity
    00:00 +2°C° 0 mm 2 mps 641 mmHg 58%
    01:00 +2°C° 0 mm 2 mps 641 mmHg 59%
    02:00 +2°C° 0 mm 2 mps 641 mmHg 59%
    03:00 +2°C° 0 mm 2 mps 641 mmHg 60%
    04:00 +2°C° 0 mm 2 mps 641 mmHg 59%
    05:00 +2°C° 0 mm 2 mps 641 mmHg 59%
    06:00 +1°C° 0 mm 2 mps 641 mmHg 59%
    07:00 +3°C° 0 mm 2 mps 642 mmHg 55%
    08:00 +6°C° 0 mm 1 mps 642 mmHg 52%
    09:00 +8°C° 0 mm 1 mps 643 mmHg 48%
    10:00 +9°C° 0 mm 1 mps 644 mmHg 44%
    11:00 +11°C° 0 mm 1 mps 644 mmHg 41%
    12:00 +12°C° 0 mm 1 mps 644 mmHg 39%
    13:00 +12°C° 0 mm 1 mps 644 mmHg 41%
    14:00 +11°C° 0 mm 1 mps 643 mmHg 44%
    15:00 +11°C° 0 mm 1 mps 643 mmHg 47%
    16:00 +9°C° 0 mm 1 mps 642 mmHg 52%
    17:00 +7°C° 0 mm 1 mps 641 mmHg 58%
    18:00 +4°C° 0 mm 1 mps 641 mmHg 63%
    19:00 +4°C° 0 mm 1 mps 641 mmHg 61%
    20:00 +4°C° 0 mm 1 mps 641 mmHg 60%
    21:00 +4°C° 0 mm 1 mps 641 mmHg 59%
    22:00 +4°C° 0 mm 1 mps 641 mmHg 58%
    23:00 +4°C° 0 mm 1 mps 641 mmHg 58%

    Tomorrow, 21 November, Tuesday

    Time Temperature Precipitation Wind Pressure Humidity
    00:00 +4°C° 0 mm 1 mps 641 mmHg 57%
    01:00 +4°C° 0 mm 1 mps 641 mmHg 56%
    02:00 +4°C° 0 mm 1 mps 640 mmHg 56%
    03:00 +4°C° 0 mm 1 mps 640 mmHg 55%
    04:00 +4°C° 0 mm 1 mps 640 mmHg 54%
    05:00 +4°C° 0 mm 1 mps 640 mmHg 52%
    06:00 +4°C° 0 mm 1 mps 640 mmHg 51%
    07:00 +6°C° 0 mm 1 mps 641 mmHg 47%
    08:00 +7°C° 0 mm 1 mps 642 mmHg 43%
    09:00 +8°C° 0 mm 0 mps 642 mmHg 39%
    10:00 +11°C° 0 mm 1 mps 643 mmHg 36%
    11:00 +12°C° 0 mm 1 mps 643 mmHg 32%
    12:00 +14°C° 0 mm 1 mps 643 mmHg 29%
    13:00 +13°C° 0 mm 1 mps 643 mmHg 33%
    14:00 +12°C° 0 mm 1 mps 642 mmHg 38%
    15:00 +12°C° 0 mm 1 mps 641 mmHg 42%
    16:00 +10°C° 0 mm 1 mps 641 mmHg 47%
    17:00 +8°C° 0 mm 1 mps 640 mmHg 51%
    18:00 +5°C° 0 mm 1 mps 639 mmHg 56%
    19:00 +5°C° 0 mm 1 mps 639 mmHg 56%
    20:00 +5°C° 0 mm 1 mps 639 mmHg 55%
    21:00 +5°C° 0 mm 1 mps 639 mmHg 55%
    22:00 +5°C° 0 mm 1 mps 639 mmHg 54%
    23:00 +5°C° 0 mm 1 mps 639 mmHg 53%

    Day after tomorrow, 22 November, Wednesday

    Time Temperature Precipitation Wind Pressure Humidity
    00:00 +4°C° 0 mm 1 mps 638 mmHg 52%
    01:00 +4°C° 0 mm 1 mps 638 mmHg 50%
    02:00 +4°C° 0 mm 1 mps 638 mmHg 48%
    03:00 +4°C° 0 mm 1 mps 637 mmHg 47%
    04:00 +4°C° 0 mm 1 mps 637 mmHg 44%
    05:00 +4°C° 0 mm 1 mps 637 mmHg 41%
    06:00 +4°C° 0 mm 1 mps 637 mmHg 39%
    07:00 +5°C° 0 mm 1 mps 637 mmHg 38%
    08:00 +7°C° 0 mm 1 mps 638 mmHg 36%
    09:00 +8°C° 0 mm 2 mps 639 mmHg 35%
    10:00 +9°C° 0 mm 2 mps 639 mmHg 33%
    11:00 +12°C° 0 mm 2 mps 639 mmHg 31%
    12:00 +13°C° 0 mm 2 mps 640 mmHg 29%
    13:00 +12°C° 0 mm 2 mps 639 mmHg 32%
    14:00 +12°C° 0 mm 2 mps 639 mmHg 35%
    15:00 +10°C° 0 mm 2 mps 638 mmHg 38%
    16:00 +8°C° 0 mm 2 mps 638 mmHg 41%
    17:00 +7°C° 0 mm 1 mps 637 mmHg 44%
    18:00 +5°C° 0 mm 1 mps 637 mmHg 47%
    19:00 +4°C° 0 mm 1 mps 637 mmHg 45%
    20:00 +4°C° 0 mm 1 mps 637 mmHg 43%
    21:00 +4°C° 0 mm 1 mps 637 mmHg 40%
    22:00 +4°C° 0 mm 1 mps 637 mmHg 40%
    23:00 +4°C° 0 mm 1 mps 637 mmHg 41%

    23 November, Thursday

    Time Temperature Precipitation Wind Pressure Humidity
    00:00 +4°C° 0 mm 1 mps 637 mmHg 41%
    01:00 +4°C° 0 mm 1 mps 637 mmHg 43%
    02:00 +4°C° 0 mm 1 mps 637 mmHg 45%
    03:00 +4°C° 0 mm 1 mps 637 mmHg 48%
    04:00 +4°C° 0 mm 1 mps 638 mmHg 49%
    05:00 +4°C° 0 mm 1 mps 638 mmHg 51%
    06:00 +5°C° 0 mm 1 mps 638 mmHg 52%
    07:00 +6°C° 0 mm 1 mps 639 mmHg 51%
    08:00 +8°C° 0 mm 1 mps 640 mmHg 49%
    09:00 +9°C° 0 mm 1 mps 641 mmHg 47%
    10:00 +11°C° 0 mm 1 mps 641 mmHg 46%
    11:00 +12°C° 0 mm 2 mps 642 mmHg 45%
    12:00 +13°C° 0 mm 2 mps 642 mmHg 44%
    13:00 +12°C° 0 mm 2 mps 642 mmHg 48%
    14:00 +12°C° 0 mm 2 mps 641 mmHg 52%
    15:00 +10°C° 0 mm 2 mps 641 mmHg 56%
    16:00 +9°C° 0 mm 2 mps 641 mmHg 62%
    17:00 +7°C° 0 mm 2 mps 640 mmHg 67%
    18:00 +6°C° 0 mm 1 mps 640 mmHg 73%
    19:00 +6°C° 0 mm 1 mps 640 mmHg 72%
    20:00 +6°C° 0 mm 1 mps 641 mmHg 71%
    21:00 +6°C° 0 mm 1 mps 641 mmHg 70%
    22:00 +6°C° 0 mm 1 mps 641 mmHg 70%
    23:00 +6°C° 0 mm 1 mps 641 mmHg 69%

    24 November, Friday

    Time Temperature Precipitation Wind Pressure Humidity
    00:00 +6°C° 0 mm 1 mps 641 mmHg 69%
    01:00 +6°C° 0 mm 1 mps 641 mmHg 69%
    02:00 +5°C° 0 mm 1 mps 640 mmHg 68%
    03:00 +5°C° 0 mm 1 mps 640 mmHg 68%
    04:00 +5°C° 0 mm 1 mps 640 mmHg 66%
    05:00 +5°C° 0 mm 1 mps 640 mmHg 63%
    06:00 +5°C° 0 mm 1 mps 640 mmHg 61%
    07:00 +6°C° 0 mm 2 mps 641 mmHg 56%
    08:00 +7°C° 0 mm 2 mps 641 mmHg 52%
    09:00 +9°C° 0 mm 2 mps 642 mmHg 47%
    10:00 +10°C° 0 mm 2 mps 642 mmHg 44%
    11:00 +11°C° 0 mm 3 mps 642 mmHg 41%
    12:00 +12°C° 0 mm 3 mps 643 mmHg 38%
    13:00 +12°C° 0 mm 3 mps 642 mmHg 40%
    14:00 +11°C° 0 mm 3 mps 642 mmHg 43%
    15:00 +12°C° 0 mm 2 mps 641 mmHg 46%
    16:00 +9°C° 0 mm 2 mps 641 mmHg 51%
    17:00 +7°C° 0 mm 2 mps 640 mmHg 56%
    18:00 +5°C° 0 mm 2 mps 640 mmHg 61%
    19:00 +5°C° 0 mm 2 mps 640 mmHg 63%
    20:00 +5°C° 0 mm 2 mps 640 mmHg 64%
    21:00 +5°C° 0 mm 2 mps 640 mmHg 66%
    22:00 +4°C° 0 mm 2 mps 640 mmHg 63%
    23:00 +4°C° 0 mm 2 mps 639 mmHg 60%

    25 November, Saturday

    Time Temperature Precipitation Wind Pressure Humidity
    00:00 +4°C° 0 mm 2 mps 639 mmHg 57%
    01:00 +4°C° 0 mm 2 mps 639 mmHg 55%
    02:00 +4°C° 0 mm 2 mps 639 mmHg 53%
    03:00 +4°C° 0 mm 2 mps 639 mmHg 51%
    04:00 +3°C° 0 mm 2 mps 639 mmHg 51%
    05:00 +3°C° 0 mm 2 mps 639 mmHg 50%
    06:00 +3°C° 0 mm 2 mps 639 mmHg 50%
    07:00 +5°C° 0 mm 2 mps 640 mmHg 47%
    08:00 +6°C° 0 mm 2 mps 640 mmHg 44%
    09:00 +8°C° 0 mm 2 mps 641 mmHg 42%
    10:00 +9°C° 0 mm 2 mps 641 mmHg 41%
    11:00 +10°C° 0 mm 2 mps 642 mmHg 40%
    12:00 +12°C° 0 mm 2 mps 642 mmHg 40%
    13:00 +12°C° 0 mm 2 mps 642 mmHg 43%
    14:00 +10°C° 0 mm 2 mps 642 mmHg 47%
    15:00 +10°C° 0 mm 1 mps 642 mmHg 50%
    16:00 +9°C° 0 mm 1 mps 641 mmHg 56%
    17:00 +7°C° 0 mm 1 mps 641 mmHg 62%
    18:00 +5°C° 0 mm 1 mps 641 mmHg 69%
    19:00 +6°C° 0.1 mm 1 mps 641 mmHg 69%
    20:00 +6°C° 0.1 mm 1 mps 642 mmHg 69%
    21:00 +6°C° 0.1 mm 1 mps 642 mmHg 69%
    22:00 +6°C° 0.4 mm 1 mps 642 mmHg 73%
    23:00 +5°C° 0.4 mm 1 mps 642 mmHg 76%
    Show more